Overview Statistics Trail Chart Weather Telemetry Raw packets
 

This is the latest recevied weather packets stored in our database for station/object S51UL-6. If no packets are shown the sender has not sent any weather packets the latest 10 day(s).

<< 74 75 76 77 78 79 80 >>
Time Temp. Humidity Pressure Rain* Wind** Luminosity Snow
1787941356 23.89° C 78% 1011.8 hPa 0 mm - - -
1787941056 23.89° C 78% 1012.1 hPa 0 mm - - -
1787940756 24.44° C 77% 1012.1 hPa 0 mm - - -
1787940157 25° C 76% 1012.3 hPa 0 mm - - -
1787939857 25° C 74% 1012.1 hPa 0 mm - - -
1787939557 25.56° C 74% 1012.1 hPa 0 mm - - -
1787938956 25.56° C 73% 1012.2 hPa 0 mm - - -
1787938657 26.11° C 72% 1012.2 hPa 0 mm - - -
1787938056 26.67° C 70% 1012.3 hPa 0 mm - - -
1787937757 26.67° C 69% 1012.3 hPa 0 mm - - -
1787936857 27.78° C 68% 1012.5 hPa 0 mm - - -
1787936257 28.33° C 67% 1012.5 hPa 0 mm - - -
1787935657 28.33° C 66% 1012.8 hPa 0 mm - - -
1787935057 28.89° C 65% 1012.6 hPa 0 mm - - -
1787934458 29.44° C 65% 1012.5 hPa 0 mm - - -
1787934158 29.44° C 64% 1012.5 hPa 0 mm - - -
1787933258 30° C 63% 1012.6 hPa 0 mm - - -
1787932658 30° C 62% 1012.6 hPa 0 mm - - -
1787932359 30° C 62% 1012.7 hPa 0 mm - - -
1787931458 30° C 63% 1012.7 hPa 0 mm - - -
1787931158 30° C 62% 1012.8 hPa 0 mm - - -
1787930558 30° C 62% 1012.7 hPa 0 mm - - -
1787929659 29.44° C 62% 1012.7 hPa 0 mm - - -
1787929358 29.44° C 62% 1012.6 hPa 0 mm - - -
1787929058 29.44° C 62% 1012.8 hPa 0 mm - - -

* Rain latest hour (hover to see other rain measurements)
** Current wind speed in m/s (hover to see current wind gust speed)